Regional Weather Roundup
Issued by NWS State College, PA

Current Version | Previous Version | Text Only | Print | Product List | Glossary On
Versions: 1 2 3 4 5 6 7 8 9 10 11 12 13 14 15 16 17 18 19 20 21 22 23 24 25 26 27 28 29 30 31 32 33 34 35 36 37 38 39 40 41 42 43 44 45 46 47 48 49 50
000
ASUS41 KCTP 311510
RWRCTP

REGIONAL WEATHER ROUNDUP
NATIONAL WEATHER SERVICE STATE COLLEGE PA
1100 AM EDT TUE MAR 31 2015

Note: "fair" indicates few or no clouds below 12,000 feet with no
significant weather and/or obstructions to visibility.

* = STATION THAT DOES NOT REPORT PRECIPITATION /E.G. RAIN...SNOW...ETC/
    THUNDER OR FOG.

PAZ002>004-007>009-013>016-020>023-029>032-311600-
WESTERN PENNSYLVANIA

CITY           SKY/WX    TMP DP  RH WIND       PRES   REMARKS
ERIE           LGT SNOW  33  30  88 NE10      29.75F FOG
MEADVILLE      RAIN      34  31  88 E5        29.67F FOG
FRANKLIN*      CLOUDY    34  28  80 CALM      29.70F
NEW CASTLE     LGT RAIN  41  37  85 CALM      29.68F
BEAVER COUNTY  CLOUDY    50  32  50 SW12      29.66F
BUTLER*        CLOUDY    39  36  87 S5        29.68F
PITTSBURGH INT CLOUDY    52  27  38 SW12G21   29.67F
PITTSBURGH     PTSUNNY   52  24  33 S10       29.67F
INDIANA*       PTSUNNY   46  34  61 SW6       29.71F
LATROBE        NOT AVBL
WASHINGTON CO* CLOUDY    55  28  35 SW16G26   29.70F
$$

PAZ004>006-010>012-017>019-024>028-033>037-041-042-045-046-049>053-311600-
CENTRAL PENNSYLVANIA

CITY           SKY/WX    TMP DP  RH WIND       PRES   REMARKS
BRADFORD       SNOW      29  27  92 E7        29.70F VSB 1/4
DUBOIS         LGT SNOW  34  31  88 E5        29.69F VSB 1
CLEARFIELD     LGT SNOW  32  30  92 N5        29.73F VSB 3/4
JOHNSTOWN      CLOUDY    49  27  42 SW9G21    29.68F
ALTOONA        CLOUDY    47  28  47 S8        29.73F
STATE COLLEGE  LGT SNOW  36  30  80 CALM      29.77F
WILLIAMSPORT   LGT SNOW  33  31  92 CALM      29.84F VSB 3/4
SELINSGROVE    CLOUDY    39  28  64 NE7       29.84F
FT INDIANTOWN  CLOUDY    44  26  49 VRB3      29.83F
CAPITAL CITY   PTSUNNY   47  27  45 E9        29.82F
HARRISBURG     PTSUNNY   47  28  47 SE6       29.83F
YORK           PTSUNNY   52  28  39 SE8       29.82F
$$

PAZ038>040-043-044-047-048-054-055-060>062-067>071-311600-
EASTERN PENNSYLVANIA

CITY           SKY/WX    TMP DP  RH WIND       PRES   REMARKS
SCRANTON       CLOUDY    39  22  50 VRB5      29.82F
MOUNT POCONO   CLOUDY    35  20  54 W9        29.79F
ALLENTOWN      CLOUDY    44  24  45 W9        29.87F
QUAKERTOWN*    CLOUDY    43  27  52 W7        29.88F
READING        CLOUDY    44  24  45 S3        29.85F
LANCASTER      PTSUNNY   47  32  56 SE7       29.85F
COATESVILLE    PTSUNNY   45  28  53 SW3       29.86F
POTTSTOWN      CLOUDY    43  25  49 CALM      29.88F
BLUE BELL      PTSUNNY   46  30  53 CALM      29.88F
DOYLESTOWN     CLOUDY    43  26  51 CALM      29.87F
WILLOW GROVE   NOT AVBL
NORTH PHILA    CLOUDY    50  24  36 W8        29.90F
PHILADELPHIA   CLOUDY    49  24  37 NW5       29.89F
$$


USA.gov is the U.S. government's official web portal to all federal, state and local government web resources and services.